Location: Barcelona
(41.3830°N, 2.1830°E)
Time: 09:55:05
(UTC+01:00)

CAS-4A - Visible Passes

Search period start: 20 March 2019 00:00
Search period end: 30 March 2019 00:00
Orbit: 530 x 545 km, 43.0° (Epoch: 19 March)

Date Brightness Start Highest point End Pass type
(mag) Time Alt. Az. Time Alt. Az. Time Alt. Az.
20 Mar ? 19:42:11 10° W 19:46:15 71° N 19:49:53 13° E visible
20 Mar ? 21:22:25 10° W 21:25:15 39° WSW 21:25:15 39° WSW visible
21 Mar ? 19:32:10 10° WNW 19:36:14 75° N 19:40:19 10° E visible
21 Mar ? 21:12:25 10° W 21:15:45 43° SW 21:15:45 43° SW visible
22 Mar ? 21:02:26 10° W 21:06:14 38° SSW 21:06:17 38° SSW visible
23 Mar ? 20:52:29 10° W 20:56:06 31° SSW 20:56:52 29° S visible
24 Mar ? 20:42:35 10° W 20:45:58 25° SSW 20:47:30 20° S visible
25 Mar ? 20:32:47 10° W 20:35:49 20° SW 20:38:14 13° S visible
26 Mar ? 20:23:05 10° WSW 20:25:37 16° SW 20:28:10 10° S visible
27 Mar ? 20:13:40 10° WSW 20:15:26 13° SW 20:17:12 10° SSW visible
